Location: Proctor
(47.8934°N, 114.3048°W)
Time: 00:50:11
(UTC+00:00)

A-11 Canister half - Visible Passes

Search period start: 16 June 2024 00:00
Search period end: 26 June 2024 00:00
Orbit: 1515 x 1685 km, 47.2° (Epoch: 15 June)

Date Brightness Start Highest point End Pass type
(mag) Time Alt. Az. Time Alt. Az. Time Alt. Az.
16 Jun 9.0 05:38:07 10° W 05:48:08 87° S 05:57:45 10° E visible
16 Jun 8.9 07:43:19 10° WNW 07:53:02 71° SSW 08:02:22 10° ESE visible
16 Jun 9.5 09:48:42 10° WNW 09:56:52 33° SW 10:04:49 10° SSE visible
17 Jun 9.1 05:15:05 10° W 05:25:07 87° S 05:34:46 10° E visible
17 Jun 8.9 07:20:17 10° WNW 07:30:03 73° SSW 07:39:27 10° ESE visible
17 Jun 9.4 09:25:37 10° WNW 09:33:58 35° SW 09:42:05 10° SSE visible
18 Jun 9.1 04:52:03 10° W 05:02:06 86° S 05:11:47 10° E visible
18 Jun 8.9 06:57:15 10° WNW 07:07:05 75° SSW 07:16:31 10° ESE visible
18 Jun 9.4 09:02:32 10° WNW 09:11:05 37° SW 09:19:21 10° SSE visible
19 Jun 9.1 04:29:01 10° W 04:39:05 86° S 04:48:48 10° E visible
19 Jun 9.0 06:34:13 10° W 06:44:06 76° SSW 06:53:35 10° ESE visible
19 Jun 9.4 08:39:29 10° WNW 08:48:10 39° SW 08:56:36 10° SSE visible
19 Jun 10.4 10:50:36 10° WSW 10:50:46 10° WSW 10:50:57 10° WSW visible
20 Jun 9.2 04:05:59 10° WSW 04:16:05 85° S 04:25:50 10° E visible
20 Jun 9.0 06:11:12 10° W 06:21:07 78° SSW 06:30:38 10° ESE visible
20 Jun 9.3 08:16:26 10° WNW 08:25:16 41° SW 08:32:15 16° SSE visible
20 Jun 10.3 10:25:23 10° WSW 10:27:57 11° WSW 10:30:13 10° SW visible
21 Jun 9.0 05:48:09 10° W 05:58:07 79° SSW 06:07:41 10° ESE visible
21 Jun 9.3 07:53:23 10° WNW 08:02:21 43° SW 08:08:21 21° SSE visible
21 Jun 10.3 10:01:32 10° W 10:05:07 13° WSW 10:06:24 12° SW visible
22 Jun 9.0 05:25:07 10° W 05:35:07 81° SSW 05:44:44 10° ESE visible
22 Jun 9.3 07:30:19 10° WNW 07:39:26 45° SW 07:45:07 23° SSE visible
22 Jun 10.3 09:37:56 10° W 09:42:17 14° WSW 09:43:11 14° SW visible
23 Jun 9.1 05:02:05 10° W 05:12:07 82° SSW 05:21:46 10° ESE visible
23 Jun 9.3 07:07:16 10° WNW 07:16:30 48° SW 07:22:12 23° SSE visible
23 Jun 10.2 09:14:29 10° W 09:19:27 15° SW 09:20:18 15° SW visible
24 Jun 9.1 04:39:02 10° W 04:49:07 83° SSW 04:58:48 10° ESE visible
24 Jun 9.3 06:44:13 10° WNW 06:53:34 50° SW 06:59:30 23° SSE visible
24 Jun 10.2 08:51:06 10° W 08:56:36 17° SW 08:57:37 17° SW visible
25 Jun 9.2 04:16:00 10° W 04:26:06 84° S 04:35:50 10° ESE visible
25 Jun 9.2 06:21:11 10° WNW 06:30:38 52° SSW 06:36:57 22° SSE visible
25 Jun 10.2 08:27:47 10° W 08:33:45 18° SW 08:35:04 18° SW visible
